owner,sensor,date,latitude,longitude,vertical_datum,sea_water_temperature,qcFlag 
TCOON,ioos:station:TCOON:013:1,2015-01-03T22:06:00Z,27.4847,-97.3181,0.0,10.6,2 
TCOON,ioos:station:TCOON:013:1,2015-01-04T15:00:00Z,27.4847,-97.3181,0.0,9.5,2 
TCOON,ioos:station:TCOON:013:1,2015-01-04T15:42:00Z,27.4847,-97.3181,0.0,9.7,2 
TCOON,ioos:station:TCOON:013:1,2015-01-04T16:36:00Z,27.4847,-97.3181,0.0,9.9,2 
TCOON,ioos:station:TCOON:013:1,2015-01-04T17:48:00Z,27.4847,-97.3181,0.0,10.2,2 
TCOON,ioos:station:TCOON:013:1,2015-01-04T18:42:00Z,27.4847,-97.3181,0.0,10.5,2 
TCOON,ioos:station:TCOON:013:1,2015-01-04T19:36:00Z,27.4847,-97.3181,0.0,10.6,2 
TCOON,ioos:station:TCOON:013:1,2015-01-04T20:48:00Z,27.4847,-97.3181,0.0,10.9,2 
TCOON,ioos:station:TCOON:013:1,2015-01-04T21:48:00Z,27.4847,-97.3181,0.0,11.1,2 
TCOON,ioos:station:TCOON:013:1,2015-01-05T14:36:00Z,27.4847,-97.3181,0.0,8.4,2 
TCOON,ioos:station:TCOON:013:1,2015-01-05T16:24:00Z,27.4847,-97.3181,0.0,8.3,2 
TCOON,ioos:station:TCOON:013:1,2015-01-05T17:12:00Z,27.4847,-97.3181,0.0,9.1,2 
TCOON,ioos:station:TCOON:013:1,2015-01-05T18:18:00Z,27.4847,-97.3181,0.0,8.9,2 
TCOON,ioos:station:TCOON:013:1,2015-01-05T19:18:00Z,27.4847,-97.3181,0.0,9.0,2 
TCOON,ioos:station:TCOON:013:1,2015-01-05T20:18:00Z,27.4847,-97.3181,0.0,9.1,2 
TCOON,ioos:station:TCOON:013:1,2015-01-05T21:18:00Z,27.4847,-97.3181,0.0,9.5,2 
TCOON,ioos:station:TCOON:013:1,2015-01-05T22:18:00Z,27.4847,-97.3181,0.0,9.7,2 
TCOON,ioos:station:TCOON:013:1,2015-01-06T16:18:00Z,27.4847,-97.3181,0.0,8.8,2 
TCOON,ioos:station:TCOON:013:1,2015-01-06T17:18:00Z,27.4847,-97.3181,0.0,9.2,2 
TCOON,ioos:station:TCOON:013:1,2015-01-06T18:18:00Z,27.4847,-97.3181,0.0,9.5,2 
TCOON,ioos:station:TCOON:013:1,2015-01-06T19:12:00Z,27.4847,-97.3181,0.0,10.0,2 
TCOON,ioos:station:TCOON:013:1,2015-01-06T20:18:00Z,27.4847,-97.3181,0.0,10.6,2 
TCOON,ioos:station:TCOON:013:1,2015-01-06T21:18:00Z,27.4847,-97.3181,0.0,11.2,2 
TCOON,ioos:station:TCOON:013:1,2015-01-06T22:18:00Z,27.4847,-97.3181,0.0,11.5,2 
TCOON,ioos:station:TCOON:013:1,2015-01-06T23:18:00Z,27.4847,-97.3181,0.0,11.5,2 
TCOON,ioos:station:TCOON:013:1,2015-01-07T14:36:00Z,27.4847,-97.3181,0.0,10.9,2 
TCOON,ioos:station:TCOON:013:1,2015-01-07T15:30:00Z,27.4847,-97.3181,0.0,10.9,2 
TCOON,ioos:station:TCOON:013:1,2015-01-07T16:18:00Z,27.4847,-97.3181,0.0,11.0,2 
TCOON,ioos:station:TCOON:013:1,2015-01-07T17:18:00Z,27.4847,-97.3181,0.0,11.2,2 
TCOON,ioos:station:TCOON:013:1,2015-01-07T18:18:00Z,27.4847,-97.3181,0.0,11.5,2 
TCOON,ioos:station:TCOON:013:1,2015-01-07T19:18:00Z,27.4847,-97.3181,0.0,11.8,2 
TCOON,ioos:station:TCOON:013:1,2015-01-07T20:18:00Z,27.4847,-97.3181,0.0,12.0,2 
TCOON,ioos:station:TCOON:013:1,2015-01-08T17:00:00Z,27.4847,-97.3181,0.0,7.7,2 
TCOON,ioos:station:TCOON:013:1,2015-01-08T17:18:00Z,27.4847,-97.3181,0.0,8.0,2 
TCOON,ioos:station:TCOON:013:1,2015-01-08T19:48:00Z,27.4847,-97.3181,0.0,8.2,2 
TCOON,ioos:station:TCOON:013:1,2015-01-08T20:18:00Z,27.4847,-97.3181,0.0,8.3,2 
TCOON,ioos:station:TCOON:013:1,2015-01-11T16:36:00Z,27.4847,-97.3181,0.0,7.1,2 
TCOON,ioos:station:TCOON:013:1,2015-01-11T17:18:00Z,27.4847,-97.3181,0.0,7.2,2 
TCOON,ioos:station:TCOON:013:1,2015-01-11T18:18:00Z,27.4847,-97.3181,0.0,7.4,2 
TCOON,ioos:station:TCOON:013:1,2015-01-11T19:18:00Z,27.4847,-97.3181,0.0,7.8,2 
TCOON,ioos:station:TCOON:013:1,2015-01-11T20:18:00Z,27.4847,-97.3181,0.0,8.2,2 
TCOON,ioos:station:TCOON:013:1,2015-01-11T21:18:00Z,27.4847,-97.3181,0.0,8.5,2 
TCOON,ioos:station:TCOON:013:1,2015-01-11T22:18:00Z,27.4847,-97.3181,0.0,8.7,2 
TCOON,ioos:station:TCOON:013:1,2015-01-15T18:48:00Z,27.4847,-97.3181,0.0,8.0,2 
TCOON,ioos:station:TCOON:013:1,2015-01-15T19:18:00Z,27.4847,-97.3181,0.0,8.1,2 
TCOON,ioos:station:TCOON:013:1,2015-01-15T20:18:00Z,27.4847,-97.3181,0.0,8.3,2 
TCOON,ioos:station:TCOON:013:1,2015-01-15T21:18:00Z,27.4847,-97.3181,0.0,8.6,2 
TCOON,ioos:station:TCOON:013:1,2015-01-16T15:48:00Z,27.4847,-97.3181,0.0,8.0,2 
TCOON,ioos:station:TCOON:013:1,2015-01-16T16:18:00Z,27.4847,-97.3181,0.0,8.0,2 
TCOON,ioos:station:TCOON:013:1,2015-01-16T17:18:00Z,27.4847,-97.3181,0.0,8.1,2 
TCOON,ioos:station:TCOON:013:1,2015-01-16T18:18:00Z,27.4847,-97.3181,0.0,8.3,2 
TCOON,ioos:station:TCOON:013:1,2015-01-16T19:18:00Z,27.4847,-97.3181,0.0,8.9,2 
TCOON,ioos:station:TCOON:013:1,2015-01-16T20:18:00Z,27.4847,-97.3181,0.0,9.4,2 
TCOON,ioos:station:TCOON:013:1,2015-01-16T21:18:00Z,27.4847,-97.3181,0.0,9.7,2 
TCOON,ioos:station:TCOON:013:1,2015-01-16T22:18:00Z,27.4847,-97.3181,0.0,10.0,2 
TCOON,ioos:station:TCOON:013:1,2015-01-17T14:06:00Z,27.4847,-97.3181,0.0,9.3,2 
TCOON,ioos:station:TCOON:013:1,2015-01-17T14:18:00Z,27.4847,-97.3181,0.0,9.3,2 
TCOON,ioos:station:TCOON:013:1,2015-01-17T15:18:00Z,27.4847,-97.3181,0.0,9.4,2 
TCOON,ioos:station:TCOON:013:1,2015-01-17T16:18:00Z,27.4847,-97.3181,0.0,9.6,2 
TCOON,ioos:station:TCOON:013:1,2015-01-17T17:18:00Z,27.4847,-97.3181,0.0,9.8,2 
TCOON,ioos:station:TCOON:013:1,2015-01-17T18:18:00Z,27.4847,-97.3181,0.0,10.4,2 
TCOON,ioos:station:TCOON:013:1,2015-01-17T19:18:00Z,27.4847,-97.3181,0.0,10.7,2 
TCOON,ioos:station:TCOON:013:1,2015-01-17T20:18:00Z,27.4847,-97.3181,0.0,10.9,2 
TCOON,ioos:station:TCOON:013:1,2015-01-17T21:18:00Z,27.4847,-97.3181,0.0,11.1,2 
TCOON,ioos:station:TCOON:013:1,2015-01-17T22:12:00Z,27.4847,-97.3181,0.0,11.4,2 
TCOON,ioos:station:TCOON:013:1,2015-01-17T23:18:00Z,27.4847,-97.3181,0.0,11.6,2 
TCOON,ioos:station:TCOON:013:1,2015-01-18T00:18:00Z,27.4847,-97.3181,0.0,11.5,2 
TCOON,ioos:station:TCOON:013:1,2015-01-18T01:18:00Z,27.4847,-97.3181,0.0,11.3,2 
TCOON,ioos:station:TCOON:013:1,2015-01-18T14:30:00Z,27.4847,-97.3181,0.0,10.7,2 
TCOON,ioos:station:TCOON:013:1,2015-01-18T15:18:00Z,27.4847,-97.3181,0.0,10.7,2 
TCOON,ioos:station:TCOON:013:1,2015-01-18T16:18:00Z,27.4847,-97.3181,0.0,10.9,2 
TCOON,ioos:station:TCOON:013:1,2015-01-18T17:18:00Z,27.4847,-97.3181,0.0,11.2,2 
TCOON,ioos:station:TCOON:013:1,2015-01-18T18:18:00Z,27.4847,-97.3181,0.0,11.5,2 
TCOON,ioos:station:TCOON:013:1,2015-01-18T19:18:00Z,27.4847,-97.3181,0.0,12.2,2 
TCOON,ioos:station:TCOON:013:1,2015-01-18T20:18:00Z,27.4847,-97.3181,0.0,12.8,2 
TCOON,ioos:station:TCOON:013:1,2015-01-18T21:18:00Z,27.4847,-97.3181,0.0,13.4,2 
TCOON,ioos:station:TCOON:013:1,2015-01-18T22:18:00Z,27.4847,-97.3181,0.0,13.7,2 
TCOON,ioos:station:TCOON:013:1,2015-01-18T23:12:00Z,27.4847,-97.3181,0.0,13.8,2 
TCOON,ioos:station:TCOON:013:1,2015-01-19T00:12:00Z,27.4847,-97.3181,0.0,13.8,2 
TCOON,ioos:station:TCOON:013:1,2015-01-19T01:18:00Z,27.4847,-97.3181,0.0,13.6,2 
TCOON,ioos:station:TCOON:013:1,2015-01-19T02:18:00Z,27.4847,-97.3181,0.0,13.6,2 
TCOON,ioos:station:TCOON:013:1,2015-01-19T03:12:00Z,27.4847,-97.3181,0.0,13.4,2 
TCOON,ioos:station:TCOON:013:1,2015-01-19T04:18:00Z,27.4847,-97.3181,0.0,13.5,2 
TCOON,ioos:station:TCOON:013:1,2015-01-19T05:12:00Z,27.4847,-97.3181,0.0,13.4,2 
TCOON,ioos:station:TCOON:013:1,2015-01-19T06:18:00Z,27.4847,-97.3181,0.0,13.3,2 
TCOON,ioos:station:TCOON:013:1,2015-01-19T07:12:00Z,27.4847,-97.3181,0.0,13.2,2 
TCOON,ioos:station:TCOON:013:1,2015-01-19T08:18:00Z,27.4847,-97.3181,0.0,13.1,2 
TCOON,ioos:station:TCOON:013:1,2015-01-19T13:42:00Z,27.4847,-97.3181,0.0,13.1,2 
TCOON,ioos:station:TCOON:013:1,2015-01-19T14:18:00Z,27.4847,-97.3181,0.0,13.1,2 
TCOON,ioos:station:TCOON:013:1,2015-01-19T15:18:00Z,27.4847,-97.3181,0.0,13.1,2 
TCOON,ioos:station:TCOON:013:1,2015-01-19T16:18:00Z,27.4847,-97.3181,0.0,13.2,2 
TCOON,ioos:station:TCOON:013:1,2015-01-19T17:18:00Z,27.4847,-97.3181,0.0,13.3,2 
TCOON,ioos:station:TCOON:013:1,2015-01-19T18:24:00Z,27.4847,-97.3181,0.0,13.3,2 
TCOON,ioos:station:TCOON:013:1,2015-01-19T19:18:00Z,27.4847,-97.3181,0.0,13.5,2 
TCOON,ioos:station:TCOON:013:1,2015-01-19T20:18:00Z,27.4847,-97.3181,0.0,14.1,2 
TCOON,ioos:station:TCOON:013:1,2015-01-19T21:18:00Z,27.4847,-97.3181,0.0,14.6,2 
TCOON,ioos:station:TCOON:013:1,2015-01-19T22:18:00Z,27.4847,-97.3181,0.0,15.0,2 
TCOON,ioos:station:TCOON:013:1,2015-01-19T23:12:00Z,27.4847,-97.3181,0.0,15.0,2 
TCOON,ioos:station:TCOON:013:1,2015-01-20T00:18:00Z,27.4847,-97.3181,0.0,14.8,2 
TCOON,ioos:station:TCOON:013:1,2015-01-20T03:36:00Z,27.4847,-97.3181,0.0,14.4,2 
TCOON,ioos:station:TCOON:013:1,2015-01-20T04:24:00Z,27.4847,-97.3181,0.0,14.3,2 
TCOON,ioos:station:TCOON:013:1,2015-01-20T13:48:00Z,27.4847,-97.3181,0.0,13.2,2 
TCOON,ioos:station:TCOON:013:1,2015-01-20T14:18:00Z,27.4847,-97.3181,0.0,13.1,2 
TCOON,ioos:station:TCOON:013:1,2015-01-20T15:18:00Z,27.4847,-97.3181,0.0,13.0,2 
TCOON,ioos:station:TCOON:013:1,2015-01-20T16:18:00Z,27.4847,-97.3181,0.0,13.3,2 
TCOON,ioos:station:TCOON:013:1,2015-01-20T17:18:00Z,27.4847,-97.3181,0.0,13.6,2 
TCOON,ioos:station:TCOON:013:1,2015-01-20T18:18:00Z,27.4847,-97.3181,0.0,14.3,2 
TCOON,ioos:station:TCOON:013:1,2015-01-20T19:18:00Z,27.4847,-97.3181,0.0,15.0,2 
TCOON,ioos:station:TCOON:013:1,2015-01-20T20:18:00Z,27.4847,-97.3181,0.0,15.2,2 
TCOON,ioos:station:TCOON:013:1,2015-01-20T21:18:00Z,27.4847,-97.3181,0.0,15.7,2 
TCOON,ioos:station:TCOON:013:1,2015-01-20T22:18:00Z,27.4847,-97.3181,0.0,16.0,2 
TCOON,ioos:station:TCOON:013:1,2015-01-20T23:18:00Z,27.4847,-97.3181,0.0,16.0,2 
TCOON,ioos:station:TCOON:013:1,2015-01-21T00:18:00Z,27.4847,-97.3181,0.0,16.0,2 
TCOON,ioos:station:TCOON:013:1,2015-01-21T01:30:00Z,27.4847,-97.3181,0.0,15.9,2 
TCOON,ioos:station:TCOON:013:1,2015-01-21T02:24:00Z,27.4847,-97.3181,0.0,15.8,2 
TCOON,ioos:station:TCOON:013:1,2015-01-21T03:18:00Z,27.4847,-97.3181,0.0,15.8,2 
TCOON,ioos:station:TCOON:013:1,2015-01-21T04:18:00Z,27.4847,-97.3181,0.0,15.5,2 
TCOON,ioos:station:TCOON:013:1,2015-01-21T05:18:00Z,27.4847,-97.3181,0.0,15.3,2 
TCOON,ioos:station:TCOON:013:1,2015-01-21T06:18:00Z,27.4847,-97.3181,0.0,15.2,2 
TCOON,ioos:station:TCOON:013:1,2015-01-21T07:18:00Z,27.4847,-97.3181,0.0,15.1,2 
TCOON,ioos:station:TCOON:013:1,2015-01-21T08:18:00Z,27.4847,-97.3181,0.0,15.0,2 
TCOON,ioos:station:TCOON:013:1,2015-01-21T09:18:00Z,27.4847,-97.3181,0.0,14.9,2 
TCOON,ioos:station:TCOON:013:1,2015-01-21T10:18:00Z,27.4847,-97.3181,0.0,14.9,2 
TCOON,ioos:station:TCOON:013:1,2015-01-21T11:18:00Z,27.4847,-97.3181,0.0,14.9,2 
TCOON,ioos:station:TCOON:013:1,2015-01-21T12:24:00Z,27.4847,-97.3181,0.0,14.9,2 
TCOON,ioos:station:TCOON:013:1,2015-01-21T13:24:00Z,27.4847,-97.3181,0.0,14.9,2 
TCOON,ioos:station:TCOON:013:1,2015-01-21T14:18:00Z,27.4847,-97.3181,0.0,15.0,2 
TCOON,ioos:station:TCOON:013:1,2015-01-21T15:30:00Z,27.4847,-97.3181,0.0,15.1,2 
TCOON,ioos:station:TCOON:013:1,2015-01-21T16:18:00Z,27.4847,-97.3181,0.0,15.1,2 
TCOON,ioos:station:TCOON:013:1,2015-01-21T17:18:00Z,27.4847,-97.3181,0.0,15.5,2 
TCOON,ioos:station:TCOON:013:1,2015-01-21T18:18:00Z,27.4847,-97.3181,0.0,16.0,2 
TCOON,ioos:station:TCOON:013:1,2015-01-21T19:18:00Z,27.4847,-97.3181,0.0,16.4,2 
TCOON,ioos:station:TCOON:013:1,2015-01-21T20:18:00Z,27.4847,-97.3181,0.0,16.9,2 
TCOON,ioos:station:TCOON:013:1,2015-01-21T21:18:00Z,27.4847,-97.3181,0.0,17.6,2 
TCOON,ioos:station:TCOON:013:1,2015-01-21T22:18:00Z,27.4847,-97.3181,0.0,18.3,2 
TCOON,ioos:station:TCOON:013:1,2015-01-21T23:36:00Z,27.4847,-97.3181,0.0,18.6,2 
TCOON,ioos:station:TCOON:013:1,2015-01-22T00:24:00Z,27.4847,-97.3181,0.0,18.6,2 
TCOON,ioos:station:TCOON:013:1,2015-01-22T01:24:00Z,27.4847,-97.3181,0.0,18.3,2 
TCOON,ioos:station:TCOON:013:1,2015-01-22T02:18:00Z,27.4847,-97.3181,0.0,18.1,2 
TCOON,ioos:station:TCOON:013:1,2015-01-22T03:18:00Z,27.4847,-97.3181,0.0,17.9,2 
TCOON,ioos:station:TCOON:013:1,2015-01-22T04:18:00Z,27.4847,-97.3181,0.0,17.9,2 
TCOON,ioos:station:TCOON:013:1,2015-01-22T05:18:00Z,27.4847,-97.3181,0.0,17.9,2 
TCOON,ioos:station:TCOON:013:1,2015-01-22T06:18:00Z,27.4847,-97.3181,0.0,17.9,2 
TCOON,ioos:station:TCOON:013:1,2015-01-22T07:12:00Z,27.4847,-97.3181,0.0,17.8,2 
TCOON,ioos:station:TCOON:013:1,2015-01-22T08:18:00Z,27.4847,-97.3181,0.0,17.6,2 
TCOON,ioos:station:TCOON:013:1,2015-01-22T09:12:00Z,27.4847,-97.3181,0.0,17.4,2 
TCOON,ioos:station:TCOON:013:1,2015-01-22T10:24:00Z,27.4847,-97.3181,0.0,17.3,2 
TCOON,ioos:station:TCOON:013:1,2015-01-22T11:18:00Z,27.4847,-97.3181,0.0,17.3,2 
TCOON,ioos:station:TCOON:013:1,2015-01-22T12:18:00Z,27.4847,-97.3181,0.0,17.6,2 
TCOON,ioos:station:TCOON:013:1,2015-01-22T13:18:00Z,27.4847,-97.3181,0.0,17.7,2 
TCOON,ioos:station:TCOON:013:1,2015-01-22T14:18:00Z,27.4847,-97.3181,0.0,17.6,2 
TCOON,ioos:station:TCOON:013:1,2015-01-22T15:18:00Z,27.4847,-97.3181,0.0,17.5,2 
TCOON,ioos:station:TCOON:013:1,2015-01-22T16:18:00Z,27.4847,-97.3181,0.0,17.4,2 
TCOON,ioos:station:TCOON:013:1,2015-01-23T18:18:00Z,27.4847,-97.3181,0.0,12.6,2 
TCOON,ioos:station:TCOON:013:1,2015-01-23T19:18:00Z,27.4847,-97.3181,0.0,12.5,2 
TCOON,ioos:station:TCOON:013:1,2015-01-23T20:18:00Z,27.4847,-97.3181,0.0,12.4,2 
TCOON,ioos:station:TCOON:013:1,2015-01-23T21:18:00Z,27.4847,-97.3181,0.0,12.2,2 
TCOON,ioos:station:TCOON:013:1,2015-01-23T22:18:00Z,27.4847,-97.3181,0.0,12.1,2 
TCOON,ioos:station:TCOON:013:1,2015-01-24T13:48:00Z,27.4847,-97.3181,0.0,9.7,2 
TCOON,ioos:station:TCOON:013:1,2015-01-24T14:18:00Z,27.4847,-97.3181,0.0,9.5,2 
TCOON,ioos:station:TCOON:013:1,2015-01-24T15:18:00Z,27.4847,-97.3181,0.0,9.7,2 
TCOON,ioos:station:TCOON:013:1,2015-01-24T16:18:00Z,27.4847,-97.3181,0.0,10.2,2 
TCOON,ioos:station:TCOON:013:1,2015-01-24T17:18:00Z,27.4847,-97.3181,0.0,10.6,2 
TCOON,ioos:station:TCOON:013:1,2015-01-24T18:18:00Z,27.4847,-97.3181,0.0,10.6,2 
TCOON,ioos:station:TCOON:013:1,2015-01-24T19:18:00Z,27.4847,-97.3181,0.0,11.0,2 
TCOON,ioos:station:TCOON:013:1,2015-01-24T20:18:00Z,27.4847,-97.3181,0.0,11.5,2 
TCOON,ioos:station:TCOON:013:1,2015-01-24T21:18:00Z,27.4847,-97.3181,0.0,11.9,2 
TCOON,ioos:station:TCOON:013:1,2015-01-24T22:18:00Z,27.4847,-97.3181,0.0,12.3,2 
TCOON,ioos:station:TCOON:013:1,2015-01-24T23:18:00Z,27.4847,-97.3181,0.0,12.3,2 
TCOON,ioos:station:TCOON:013:1,2015-01-25T00:18:00Z,27.4847,-97.3181,0.0,12.2,2 
TCOON,ioos:station:TCOON:013:1,2015-01-25T01:18:00Z,27.4847,-97.3181,0.0,12.2,2 
TCOON,ioos:station:TCOON:013:1,2015-01-25T02:18:00Z,27.4847,-97.3181,0.0,12.0,2 
TCOON,ioos:station:TCOON:013:1,2015-01-25T03:18:00Z,27.4847,-97.3181,0.0,11.7,2 
TCOON,ioos:station:TCOON:013:1,2015-01-25T04:18:00Z,27.4847,-97.3181,0.0,11.6,2 
TCOON,ioos:station:TCOON:013:1,2015-01-25T05:18:00Z,27.4847,-97.3181,0.0,11.5,2 
TCOON,ioos:station:TCOON:013:1,2015-01-25T06:18:00Z,27.4847,-97.3181,0.0,11.4,2 
TCOON,ioos:station:TCOON:013:1,2015-01-25T07:18:00Z,27.4847,-97.3181,0.0,11.4,2 
TCOON,ioos:station:TCOON:013:1,2015-01-25T08:18:00Z,27.4847,-97.3181,0.0,11.3,2 
TCOON,ioos:station:TCOON:013:1,2015-01-25T09:18:00Z,27.4847,-97.3181,0.0,11.1,2 
TCOON,ioos:station:TCOON:013:1,2015-01-25T10:30:00Z,27.4847,-97.3181,0.0,11.0,2 
TCOON,ioos:station:TCOON:013:1,2015-01-25T11:12:00Z,27.4847,-97.3181,0.0,11.0,2 
TCOON,ioos:station:TCOON:013:1,2015-01-25T12:18:00Z,27.4847,-97.3181,0.0,11.0,2 
TCOON,ioos:station:TCOON:013:1,2015-01-25T13:12:00Z,27.4847,-97.3181,0.0,10.9,2 
TCOON,ioos:station:TCOON:013:1,2015-01-25T14:18:00Z,27.4847,-97.3181,0.0,10.8,2 
TCOON,ioos:station:TCOON:013:1,2015-01-25T15:18:00Z,27.4847,-97.3181,0.0,10.8,2 
TCOON,ioos:station:TCOON:013:1,2015-01-25T16:18:00Z,27.4847,-97.3181,0.0,11.0,2 
TCOON,ioos:station:TCOON:013:1,2015-01-25T17:18:00Z,27.4847,-97.3181,0.0,11.4,2 
TCOON,ioos:station:TCOON:013:1,2015-01-25T18:18:00Z,27.4847,-97.3181,0.0,12.1,2 
TCOON,ioos:station:TCOON:013:1,2015-01-25T19:18:00Z,27.4847,-97.3181,0.0,12.5,2 
TCOON,ioos:station:TCOON:013:1,2015-01-25T20:18:00Z,27.4847,-97.3181,0.0,12.9,2 
TCOON,ioos:station:TCOON:013:1,2015-01-25T21:24:00Z,27.4847,-97.3181,0.0,13.2,2 
TCOON,ioos:station:TCOON:013:1,2015-01-25T22:18:00Z,27.4847,-97.3181,0.0,13.4,2 
TCOON,ioos:station:TCOON:013:1,2015-01-25T23:18:00Z,27.4847,-97.3181,0.0,13.5,2 
TCOON,ioos:station:TCOON:013:1,2015-01-26T00:18:00Z,27.4847,-97.3181,0.0,13.5,2 
TCOON,ioos:station:TCOON:013:1,2015-01-26T01:18:00Z,27.4847,-97.3181,0.0,13.5,2 
TCOON,ioos:station:TCOON:013:1,2015-01-26T02:18:00Z,27.4847,-97.3181,0.0,13.4,2 
TCOON,ioos:station:TCOON:013:1,2015-01-26T03:18:00Z,27.4847,-97.3181,0.0,13.3,2 
TCOON,ioos:station:TCOON:013:1,2015-01-26T04:18:00Z,27.4847,-97.3181,0.0,13.2,2 
TCOON,ioos:station:TCOON:013:1,2015-01-26T05:18:00Z,27.4847,-97.3181,0.0,13.1,2 
TCOON,ioos:station:TCOON:013:1,2015-01-26T06:24:00Z,27.4847,-97.3181,0.0,12.9,2 
TCOON,ioos:station:TCOON:013:1,2015-01-26T07:18:00Z,27.4847,-97.3181,0.0,12.8,2 
TCOON,ioos:station:TCOON:013:1,2015-01-26T08:18:00Z,27.4847,-97.3181,0.0,12.7,2 
TCOON,ioos:station:TCOON:013:1,2015-01-26T09:18:00Z,27.4847,-97.3181,0.0,12.5,2 
TCOON,ioos:station:TCOON:013:1,2015-01-26T10:18:00Z,27.4847,-97.3181,0.0,12.3,2 
TCOON,ioos:station:TCOON:013:1,2015-01-26T11:24:00Z,27.4847,-97.3181,0.0,12.2,2 
TCOON,ioos:station:TCOON:013:1,2015-01-26T12:12:00Z,27.4847,-97.3181,0.0,12.1,2 
TCOON,ioos:station:TCOON:013:1,2015-01-26T13:18:00Z,27.4847,-97.3181,0.0,12.0,2 
TCOON,ioos:station:TCOON:013:1,2015-01-26T14:18:00Z,27.4847,-97.3181,0.0,11.8,2 
TCOON,ioos:station:TCOON:013:1,2015-01-26T15:18:00Z,27.4847,-97.3181,0.0,11.8,2 
TCOON,ioos:station:TCOON:013:1,2015-01-26T16:18:00Z,27.4847,-97.3181,0.0,12.1,2 
TCOON,ioos:station:TCOON:013:1,2015-01-26T17:18:00Z,27.4847,-97.3181,0.0,12.6,2 
TCOON,ioos:station:TCOON:013:1,2015-01-26T18:18:00Z,27.4847,-97.3181,0.0,13.1,2 
TCOON,ioos:station:TCOON:013:1,2015-01-26T19:18:00Z,27.4847,-97.3181,0.0,13.8,2 
TCOON,ioos:station:TCOON:013:1,2015-01-26T20:18:00Z,27.4847,-97.3181,0.0,14.2,2 
TCOON,ioos:station:TCOON:013:1,2015-01-26T21:18:00Z,27.4847,-97.3181,0.0,14.5,2 
TCOON,ioos:station:TCOON:013:1,2015-01-26T22:36:00Z,27.4847,-97.3181,0.0,14.5,2 
TCOON,ioos:station:TCOON:013:1,2015-01-26T23:24:00Z,27.4847,-97.3181,0.0,14.5,2 
TCOON,ioos:station:TCOON:013:1,2015-01-27T00:18:00Z,27.4847,-97.3181,0.0,14.4,2 
TCOON,ioos:station:TCOON:013:1,2015-01-27T01:18:00Z,27.4847,-97.3181,0.0,14.4,2 
TCOON,ioos:station:TCOON:013:1,2015-01-27T02:18:00Z,27.4847,-97.3181,0.0,14.3,2 
TCOON,ioos:station:TCOON:013:1,2015-01-27T03:18:00Z,27.4847,-97.3181,0.0,14.2,2 
TCOON,ioos:station:TCOON:013:1,2015-01-27T04:18:00Z,27.4847,-97.3181,0.0,14.1,2 
TCOON,ioos:station:TCOON:013:1,2015-01-27T05:18:00Z,27.4847,-97.3181,0.0,14.0,2 
TCOON,ioos:station:TCOON:013:1,2015-01-27T07:00:00Z,27.4847,-97.3181,0.0,13.7,2 
TCOON,ioos:station:TCOON:013:1,2015-01-27T07:12:00Z,27.4847,-97.3181,0.0,13.7,2 
TCOON,ioos:station:TCOON:013:1,2015-01-27T08:18:00Z,27.4847,-97.3181,0.0,13.5,2 
TCOON,ioos:station:TCOON:013:1,2015-01-27T09:18:00Z,27.4847,-97.3181,0.0,13.3,2 
TCOON,ioos:station:TCOON:013:1,2015-01-27T10:18:00Z,27.4847,-97.3181,0.0,13.2,2 
TCOON,ioos:station:TCOON:013:1,2015-01-27T11:12:00Z,27.4847,-97.3181,0.0,13.1,2 
TCOON,ioos:station:TCOON:013:1,2015-01-27T12:18:00Z,27.4847,-97.3181,0.0,12.9,2 
TCOON,ioos:station:TCOON:013:1,2015-01-27T13:18:00Z,27.4847,-97.3181,0.0,12.8,2 
TCOON,ioos:station:TCOON:013:1,2015-01-27T14:18:00Z,27.4847,-97.3181,0.0,12.7,2 
TCOON,ioos:station:TCOON:013:1,2015-01-27T15:18:00Z,27.4847,-97.3181,0.0,12.7,2 
TCOON,ioos:station:TCOON:013:1,2015-01-27T16:18:00Z,27.4847,-97.3181,0.0,13.1,2 
TCOON,ioos:station:TCOON:013:1,2015-01-27T17:12:00Z,27.4847,-97.3181,0.0,13.8,2 
TCOON,ioos:station:TCOON:013:1,2015-01-27T18:18:00Z,27.4847,-97.3181,0.0,14.4,2 
TCOON,ioos:station:TCOON:013:1,2015-01-27T19:18:00Z,27.4847,-97.3181,0.0,15.2,2 
TCOON,ioos:station:TCOON:013:1,2015-01-27T20:18:00Z,27.4847,-97.3181,0.0,16.0,2 
TCOON,ioos:station:TCOON:013:1,2015-01-27T21:18:00Z,27.4847,-97.3181,0.0,16.3,2 
TCOON,ioos:station:TCOON:013:1,2015-01-27T22:24:00Z,27.4847,-97.3181,0.0,16.6,2 
TCOON,ioos:station:TCOON:013:1,2015-01-27T23:18:00Z,27.4847,-97.3181,0.0,16.7,2 
TCOON,ioos:station:TCOON:013:1,2015-01-28T00:18:00Z,27.4847,-97.3181,0.0,16.4,2 
TCOON,ioos:station:TCOON:013:1,2015-01-28T01:24:00Z,27.4847,-97.3181,0.0,16.1,2 
TCOON,ioos:station:TCOON:013:1,2015-01-28T02:18:00Z,27.4847,-97.3181,0.0,15.9,2 
TCOON,ioos:station:TCOON:013:1,2015-01-28T03:24:00Z,27.4847,-97.3181,0.0,15.6,2 
TCOON,ioos:station:TCOON:013:1,2015-01-28T04:18:00Z,27.4847,-97.3181,0.0,15.5,2 
TCOON,ioos:station:TCOON:013:1,2015-01-28T05:18:00Z,27.4847,-97.3181,0.0,15.2,2 
TCOON,ioos:station:TCOON:013:1,2015-01-28T06:18:00Z,27.4847,-97.3181,0.0,15.1,2 
TCOON,ioos:station:TCOON:013:1,2015-01-28T07:18:00Z,27.4847,-97.3181,0.0,15.0,2 
TCOON,ioos:station:TCOON:013:1,2015-01-28T08:18:00Z,27.4847,-97.3181,0.0,14.9,2 
TCOON,ioos:station:TCOON:013:1,2015-01-28T11:36:00Z,27.4847,-97.3181,0.0,14.3,2 
TCOON,ioos:station:TCOON:013:1,2015-01-28T12:18:00Z,27.4847,-97.3181,0.0,14.1,2 
TCOON,ioos:station:TCOON:013:1,2015-01-28T15:36:00Z,27.4847,-97.3181,0.0,14.6,2 
TCOON,ioos:station:TCOON:013:1,2015-01-28T16:18:00Z,27.4847,-97.3181,0.0,14.8,2 
TCOON,ioos:station:TCOON:013:1,2015-01-28T17:24:00Z,27.4847,-97.3181,0.0,15.5,2 
TCOON,ioos:station:TCOON:013:1,2015-01-28T18:18:00Z,27.4847,-97.3181,0.0,16.2,2 
TCOON,ioos:station:TCOON:013:1,2015-01-28T19:18:00Z,27.4847,-97.3181,0.0,17.0,2 
TCOON,ioos:station:TCOON:013:1,2015-01-28T20:18:00Z,27.4847,-97.3181,0.0,17.4,2 
TCOON,ioos:station:TCOON:013:1,2015-01-28T21:18:00Z,27.4847,-97.3181,0.0,17.9,2 
TCOON,ioos:station:TCOON:013:1,2015-01-28T22:24:00Z,27.4847,-97.3181,0.0,18.1,2 
TCOON,ioos:station:TCOON:013:1,2015-01-28T23:18:00Z,27.4847,-97.3181,0.0,18.1,2 
TCOON,ioos:station:TCOON:013:1,2015-01-29T00:18:00Z,27.4847,-97.3181,0.0,17.9,2 
TCOON,ioos:station:TCOON:013:1,2015-01-29T01:18:00Z,27.4847,-97.3181,0.0,17.5,2 
TCOON,ioos:station:TCOON:013:1,2015-01-29T02:18:00Z,27.4847,-97.3181,0.0,17.3,2 
TCOON,ioos:station:TCOON:013:1,2015-01-29T03:18:00Z,27.4847,-97.3181,0.0,17.1,2 
TCOON,ioos:station:TCOON:013:1,2015-01-29T04:18:00Z,27.4847,-97.3181,0.0,16.8,2 
TCOON,ioos:station:TCOON:013:1,2015-01-29T05:18:00Z,27.4847,-97.3181,0.0,16.6,2 
TCOON,ioos:station:TCOON:013:1,2015-01-29T06:18:00Z,27.4847,-97.3181,0.0,16.4,2 
TCOON,ioos:station:TCOON:013:1,2015-01-29T07:12:00Z,27.4847,-97.3181,0.0,16.2,2 
TCOON,ioos:station:TCOON:013:1,2015-01-29T08:18:00Z,27.4847,-97.3181,0.0,16.0,2 
TCOON,ioos:station:TCOON:013:1,2015-01-29T09:18:00Z,27.4847,-97.3181,0.0,15.9,2 
TCOON,ioos:station:TCOON:013:1,2015-01-29T10:18:00Z,27.4847,-97.3181,0.0,15.8,2 
TCOON,ioos:station:TCOON:013:1,2015-01-29T11:18:00Z,27.4847,-97.3181,0.0,15.8,2 
TCOON,ioos:station:TCOON:013:1,2015-01-29T12:18:00Z,27.4847,-97.3181,0.0,15.7,2 
TCOON,ioos:station:TCOON:013:1,2015-01-29T13:18:00Z,27.4847,-97.3181,0.0,15.6,2 
TCOON,ioos:station:TCOON:013:1,2015-01-29T14:18:00Z,27.4847,-97.3181,0.0,15.6,2 
TCOON,ioos:station:TCOON:013:1,2015-01-29T15:12:00Z,27.4847,-97.3181,0.0,15.7,2 
TCOON,ioos:station:TCOON:013:1,2015-01-29T16:18:00Z,27.4847,-97.3181,0.0,16.1,2 
TCOON,ioos:station:TCOON:013:1,2015-01-29T17:18:00Z,27.4847,-97.3181,0.0,16.7,2 
TCOON,ioos:station:TCOON:013:1,2015-01-29T18:12:00Z,27.4847,-97.3181,0.0,17.3,2 
TCOON,ioos:station:TCOON:013:1,2015-01-29T19:18:00Z,27.4847,-97.3181,0.0,18.5,2 
TCOON,ioos:station:TCOON:013:1,2015-01-29T20:18:00Z,27.4847,-97.3181,0.0,19.1,2 
TCOON,ioos:station:TCOON:013:1,2015-01-29T21:18:00Z,27.4847,-97.3181,0.0,19.3,2 
TCOON,ioos:station:TCOON:013:1,2015-01-29T22:18:00Z,27.4847,-97.3181,0.0,19.9,2 
TCOON,ioos:station:TCOON:013:1,2015-01-29T23:24:00Z,27.4847,-97.3181,0.0,20.1,2 
TCOON,ioos:station:TCOON:013:1,2015-01-30T00:18:00Z,27.4847,-97.3181,0.0,20.0,2 
TCOON,ioos:station:TCOON:013:1,2015-01-30T01:18:00Z,27.4847,-97.3181,0.0,19.8,2 
TCOON,ioos:station:TCOON:013:1,2015-01-30T02:18:00Z,27.4847,-97.3181,0.0,19.6,2 
TCOON,ioos:station:TCOON:013:1,2015-01-30T03:18:00Z,27.4847,-97.3181,0.0,19.3,2 
TCOON,ioos:station:TCOON:013:1,2015-01-30T04:18:00Z,27.4847,-97.3181,0.0,19.2,2 
TCOON,ioos:station:TCOON:013:1,2015-01-30T05:18:00Z,27.4847,-97.3181,0.0,19.1,2 
TCOON,ioos:station:TCOON:013:1,2015-01-30T06:54:00Z,27.4847,-97.3181,0.0,18.9,2 
TCOON,ioos:station:TCOON:013:1,2015-01-30T07:18:00Z,27.4847,-97.3181,0.0,18.8,2 
TCOON,ioos:station:TCOON:013:1,2015-01-30T08:18:00Z,27.4847,-97.3181,0.0,18.6,2 
TCOON,ioos:station:TCOON:013:1,2015-01-30T09:18:00Z,27.4847,-97.3181,0.0,18.5,2 